RADCAL 1 22698U 93041A 08286.29496151 .00000085 00000-0 30733-4 0 1675 2 22698 089.5252 040.4760 0091427 047.9435 312.9486 14.22801860794023 STRV 1A 1 23125U 94034B 08286.02211809 .00002495 00000-0 39772-3 0 2792 2 23125 007.1655 224.6526 6867658 022.6683 356.8054 02.82829305132386 STRV 1B 1 23126U 94034C 08286.82942137 .00001393 00000-0 27119-3 0 2963 2 23126 006.9856 171.3794 6805239 125.4552 317.9890 02.89886740134455 HELIOS 1A 1 23605U 95033A 08286.80583249 .00000034 00000-0 15634-4 0 4769 2 23605 098.1345 221.0815 0002452 096.9479 263.2012 14.63829260708983 REX 2 1 23814U 96014A 08286.64776874 .00000052 00000-0 17834-4 0 5058 2 23814 090.1523 267.7949 0024537 045.8644 314.4563 14.23850358654321 COSMOS 2346 1 24953U 97052A 08286.76333640 .00000007 00000-0 -82990-5 0 2873 2 24953 082.9227 140.9234 0041024 105.2216 255.3483 13.79432974556517 ARGOS 1 25634U 99008A 08286.45557236 .00000029 00000-0 36219-4 0 5461 2 25634 099.0445 313.0184 0009665 296.3962 063.6217 14.18898213498917 HELIOS 1B 1 25977U 99064A 08286.86600412 .00001372 00000-0 19962-3 0 6304 2 25977 098.3270 273.1475 0002306 045.9177 314.2241 14.77626850475407 MTI 1 26102U 00014A 08286.57518325 .00001044 00000-0 64873-4 0 9650 2 26102 097.1989 098.7477 0018801 249.8797 150.5107 15.11572667471992 STRV 1C 1 26610U 00072C 08285.81205309 -.00000004 00000-0 00000+0 0 8336 2 26610 007.3323 002.2833 7340863 269.0879 014.5116 02.03460729 58762 OFEQ 5 1 27434U 02025A 08286.74705332 .00001351 00000-0 60261-4 0 5506 2 27434 143.4635 241.6537 0024869 131.3154 228.9737 15.05328348355980 HELIOS-2A 1 28492U 04049A 08286.77066600 .00000093 00000-0 26846-4 0 2937 2 28492 098.1390 221.0992 0001807 087.6109 272.5313 14.63839264203946 ESSAIM-1 1 28494U 04049C 08286.78101336 .00000100 00000-0 25116-4 0 3485 2 28494 098.2179 237.2955 0002132 320.3517 039.7537 14.70165881204738 ESSAIM-2 1 28495U 04049D 08286.78051054 .00000046 00000-0 16087-4 0 3854 2 28495 098.2189 237.3820 0002917 306.1671 053.9265 14.70168475204734 ESSAIM-3 1 28496U 04049E 08286.78115268 .00000060 00000-0 18442-4 0 3171 2 28496 098.2310 241.2915 0008134 314.9920 045.0643 14.70167235204916 ESSAIM-4 1 28497U 04049F 08286.78068933 .00000048 00000-0 16569-4 0 3712 2 28497 098.2310 241.3260 0011210 309.5266 050.4952 14.70166722204916 MIDSTAR 1 1 30773U 07006B 08285.87067233 -.00000304 00000-0 00000+0 0 4567 2 30773 046.0258 240.6366 0010823 279.5861 080.3811 15.23567057 88868 CFESAT 1 30777U 07006F 08285.94505608 +.00000281 +00000-0 +23770-4 0 04468 2 30777 035.4324 168.0364 0004200 272.4319 087.5916 15.02584035087698